www.pogodaiklimat.ru

Погода и климат >> Архив погоды >> Австралия >> Западная Австралия >> Мунглинап Запад


ПОГОДА в Мунглинап Запад

  • Прогноз погоды в Мунглинап Запад
  • Монитор погоды в Мунглинап Запад

АРХИВ ПОГОДЫ в Мунглинап Запад

Время (UTC), дата Ветер
(напр.,м/с)
 
Видим.   Явления Облачность Т
(С)
Тd
(С)
f
(%)
Тe
(С)
Тes
(С)
Комфортность P
(гПа)
Po
(гПа)
Тmin
(С)
Tmax
(С)
R
(мм)
R24
(мм)
S
(см)
01 18.06 С 4 н/о н/о +9.1 +6.0 81 +6 +6 1029.5 1002.9 +4.4
03 18.06 С 5 н/о н/о +12.6 +5.8 63 +11 +11 1028.5 1001.9
04 18.06 С 4 н/о н/о +13.5 +3.8 52 +12 +12 1027.2 1000.7
06 18.06 СЗ 3 н/о н/о +15.0 +2.5 43 +14 +14 1025.3 998.8
07 18.06 СЗ 4 н/о н/о +14.9 +2.4 43 +14 +14 1024.9 998.4
09 18.06 З 3 н/о н/о +10.5 +2.1 56 +9 +9 1025.2 998.7
10 18.06 З 2 н/о н/о +8.8 +1.9 62 +7 +7 1025.6 999.1
12 18.06 ЮЗ 1 н/о н/о +6.8 +2.9 76 +6 +6 1025.8 999.3
13 18.06 СЗ 1 н/о н/о +7.2 +3.4 77 +6 +6 1026.0 999.5 +16.1
15 18.06 С 3 н/о н/о +3.4 +2.5 94 -0 -0 1025.8 999.3
16 18.06 С 3 н/о н/о +3.2 +3.2 100 -1 -1 1025.3 998.8
18 18.06 С 3 н/о н/о +4.1 +4.0 99 0 0 1025.2 998.7
19 18.06 С 3 н/о н/о +5.0 +4.1 94 +1 +1 1025.3 998.8
21 18.06 С 2 н/о н/о +4.0 +3.4 96 +1 +1 1025.2 998.7
22 18.06 С 2 н/о н/о +3.2 +3.2 100 -0 -0 1025.5 999.0
00 19.06 С 3 н/о н/о +7.0 +5.2 88 +4 +4 1026.0 999.5
01 19.06 СЗ 2 н/о н/о +10.5 +4.2 65 +9 +9 1026.1 999.6 +3.0
03 19.06 СЗ 3 н/о н/о +15.1 +3.3 45 +15 +15 1025.4 998.9
04 19.06 С 2 н/о н/о +16.4 +3.1 41 +17 +17 1024.4 997.9
06 19.06 В 2 н/о н/о +17.8 +1.3 33 +19 +19 1023.3 996.9
07 19.06 СЗ 1 н/о н/о +18.1 +0.7 31 +19 +19 1023.3 996.9
09 19.06 ЮВ 3 н/о н/о +11.6 +5.0 64 +10 +10 1023.6 997.2
10 19.06 ЮВ 4 н/о н/о +9.6 +6.3 80 +7 +7 1024.0 997.6
12 19.06 В 4 н/о н/о +8.4 +6.9 90 +5 +5 1024.6 998.1
13 19.06 В 4 н/о н/о +8.1 +7.2 94 +5 +5 1024.8 998.3 +18.6
15 19.06 В 4 н/о н/о +7.9 +7.9 100 +4 +4 1024.9 998.4
16 19.06 СВ 4 н/о н/о +7.9 +4.1 77 +5 +5 1024.6 998.1
18 19.06 СВ 4 н/о н/о +6.1 +1.8 74 +3 +3 1024.7 998.2
19 19.06 СВ 4 н/о н/о +4.8 +2.3 84 +1 +1 1024.7 998.2
21 19.06 СВ 4 н/о н/о +4.2 +1.9 85 0 0 1024.7 998.2
22 19.06 С 3 н/о н/о +4.4 +1.8 83 +1 +1 1025.1 998.6
00 20.06 СВ 4 н/о н/о +6.3 +2.2 75 +3 +3 1025.8 999.3
01 20.06 С 3 н/о н/о +10.4 +2.7 59 +9 +9 1025.7 999.2 +3.2
03 20.06 СВ 6 н/о н/о +15.2 -1.4 32 +14 +14 1025.0 998.5
04 20.06 СВ 4 н/о н/о +16.4 -1.7 29 +16 +16 1024.1 997.7
06 20.06 СВ 4 н/о н/о +15.7 -0.9 32 +15 +15 1022.7 996.3
07 20.06 В 4 н/о н/о +15.4 -1.6 31 +15 +15 1022.6 996.2
09 20.06 В 3 н/о н/о +11.7 -2.5 37 +10 +10 1022.8 996.4
10 20.06 В 4 н/о н/о +10.5 -1.9 42 +9 +9 1022.6 996.2
12 20.06 В 5 н/о н/о +10.1 +3.4 63 +7 +7 1022.8 996.4
13 20.06 В 6 н/о н/о +9.1 +4.3 72 +6 +6 1023.0 996.6 +17.3
15 20.06 В 6 н/о н/о +7.7 +1.3 64 +4 +4 1021.9 995.5
16 20.06 СВ 5 н/о н/о +6.5 +0.6 66 +3 +3 1021.7 995.3
18 20.06 СВ 5 н/о н/о +7.9 -2.1 49 +5 +5 1020.7 994.3
19 20.06 СВ 5 н/о н/о +7.7 -2.0 50 +4 +4 1020.2 993.9
21 20.06 СВ 5 н/о н/о +7.2 -1.7 53 +4 +4 1019.4 993.1
22 20.06 СВ 6 н/о н/о +8.1 -2.0 49 +5 +5 1019.3 993.0
00 21.06 СВ 7 н/о н/о +10.2 -1.2 45 +7 +7 1018.9 992.6
01 21.06 СВ 7 н/о н/о +12.3 -0.6 41 +10 +10 1019.2 992.9 +6.4
03 21.06 СВ 9 н/о н/о +15.5 -0.3 34 +14 +14 1018.4 992.1
04 21.06 СВ 8 н/о н/о +15.0 +0.1 36 +13 +13 1017.0 990.7
06 21.06 СВ 6 н/о н/о +17.8 +0.5 31 +17 +17 1015.8 989.6
07 21.06 СВ 6 н/о н/о +19.3 +0.8 29 +19 +19 1015.6 989.4
09 21.06 СВ 5 н/о н/о +16.8 +0.9 34 +16 +16 1015.1 988.9
10 21.06 СВ 5 н/о н/о +14.8 +1.0 39 +14 +14 1015.4 989.2
12 21.06 СВ 5 н/о н/о +13.8 +1.1 42 +12 +12 1016.1 989.9
13 21.06 СВ 7 н/о н/о +14.1 +1.4 42 +12 +12 1016.0 989.8 +20.0
15 21.06 С 7 н/о н/о +14.4 +4.1 50 +12 +12 1015.6 989.4
16 21.06 С 6 н/о н/о +13.0 +4.7 57 +11 +11 1014.8 988.6
18 21.06 С 6 н/о н/о +12.8 +7.0 68 +11 +11 1014.5 988.3
19 21.06 СВ 6 н/о н/о +12.4 +8.3 76 +10 +10 1014.2 988.0
21 21.06 С 7 н/о н/о +13.2 +11.4 89 +10 +10 1013.7 987.5
22 21.06 С 7 н/о н/о +13.8 +13.0 95 +11 +11 1014.0 987.8
00 22.06 С 6 н/о н/о +14.8 +14.5 98 +13 +13 1014.5 988.3
01 22.06 С 7 н/о н/о +15.7 +14.4 92 +14 +14 1014.8 988.6 +10.3
03 22.06 С 6 н/о н/о +17.5 +14.2 81 +17 +17 1014.0 987.8
04 22.06 С 5 н/о н/о +19.5 +12.8 65 +21 +21 комфорт 1012.6 986.5
06 22.06 С 5 н/о н/о +22.2 +10.4 47 +24 +24 комфорт 1011.1 985.0
07 22.06 С 5 н/о н/о +22.9 +11.0 47 +25 +25 комфорт 1010.8 984.7
09 22.06 СВ 4 н/о н/о +19.5 +10.5 56 +21 +21 комфорт 1009.9 983.8
10 22.06 СВ 4 н/о н/о +18.1 +10.5 61 +18 +18 1010.2 984.1
12 22.06 СВ 4 н/о н/о +17.9 +11.7 67 +18 +18 1010.6 984.5
13 22.06 С 5 н/о н/о +18.4 +11.7 65 +18 +18 1010.2 984.1 +23.4
15 22.06 С 7 н/о н/о +19.3 +11.8 62 +20 +20 1008.2 982.2
16 22.06 С 7 н/о н/о +19.7 +12.0 61 +21 +21 комфорт 1008.5 982.5
18 22.06 С 5 н/о н/о +18.4 +12.2 67 +18 +18 1007.8 981.8
19 22.06 С 6 н/о н/о +19.5 +12.5 64 +21 +21 комфорт 1008.4 982.4
21 22.06 С 4 н/о н/о +17.4 +13.3 77 +17 +17 1008.3 982.3
22 22.06 С 4 н/о н/о +16.9 +13.2 79 +16 +16 1008.1 982.1
00 23.06 С 5 н/о н/о +15.6 +15.6 100 +14 +14 1009.1 983.0
01 23.06 СЗ 4 н/о в посл. час дождь {туман} н/о +15.1 +15.1 100 +14 +14 1009.6 983.5 +14.9
03 23.06 СЗ 3 н/о н/о +15.0 +15.0 100 +14 +14 1010.3 984.2
04 23.06 СЗ 4 н/о {туман} н/о +15.2 +15.2 100 +14 +14 1009.5 983.4
06 23.06 С 4 н/о н/о +15.7 +15.7 100 +15 +15 1008.4 982.4
07 23.06 С 3 н/о туман местами н/о +14.7 +14.7 100 +14 +14 1008.9 982.8
09 23.06 С 3 н/о н/о +14.7 +14.7 100 +14 +14 1008.7 982.7
10 23.06 СЗ 4 н/о {туман} н/о +14.5 +14.5 100 +13 +13 1009.6 983.5
12 23.06 С 3 н/о н/о +14.1 +14.1 100 +13 +13 1009.8 983.7
13 23.06 С 3 н/о {туман} н/о +13.6 +13.6 100 +12 +12 1010.4 984.3 +20.0
15 23.06 СЗ 4 н/о н/о +12.4 +12.4 100 +10 +10 1011.2 985.1
16 23.06 СЗ 4 н/о н/о +12.2 +12.2 100 +10 +10 1011.9 985.8
18 23.06 З 5 н/о н/о +10.6 +10.6 100 +8 +8 1013.0 986.8
19 23.06 СЗ 4 н/о туман местами н/о +9.2 +9.2 100 +6 +6 1013.6 987.4
21 23.06 СЗ 5 н/о н/о +9.3 +9.3 100 +6 +6 1014.9 988.7
22 23.06 СЗ 4 н/о н/о +8.8 +8.8 100 +5 +5 1015.4 989.2
00 24.06 СЗ 4 н/о н/о +9.2 +9.2 100 +6 +6 1017.5 991.2
01 24.06 СЗ 5 н/о н/о +11.7 +11.7 100 +9 +9 1018.1 991.8 +8.1
03 24.06 З 8 н/о н/о +15.1 +11.5 79 +13 +13 1018.9 992.6
04 24.06 З 7 н/о н/о +16.4 +10.5 68 +15 +15 1018.8 992.5
06 24.06 СЗ 5 н/о н/о +17.4 +8.5 56 +17 +17 1018.7 992.4
07 24.06 З 5 н/о н/о +16.1 +7.8 58 +15 +15 1019.6 993.3
09 24.06 З 3 н/о н/о +14.3 +8.3 67 +14 +14 1021.0 994.6
10 24.06 СЗ 3 н/о н/о +12.1 +9.3 83 +11 +11 1021.9 995.5
12 24.06 СЗ 3 н/о н/о +10.1 +10.1 100 +8 +8 1023.1 996.7
13 24.06 С 3 н/о н/о +9.0 +9.0 100 +7 +7 1023.4 997.0 +17.9
15 24.06 С 3 н/о н/о +7.7 +7.7 100 +5 +5 1023.3 996.9
16 24.06 С 3 н/о н/о +7.1 +7.1 100 +4 +4 1023.3 996.9
18 24.06 С 2 н/о н/о +10.1 +10.1 100 +8 +8 1023.5 997.1
19 24.06 С 2 н/о н/о +10.8 +10.6 99 +10 +10 1023.5 997.1
21 24.06 С 2 н/о н/о +9.4 +9.4 100 +7 +7 1023.4 997.0
22 24.06 С 3 н/о н/о +9.9 +9.9 100 +8 +8 1023.8 997.4
00 25.06 С 2 н/о н/о +10.7 +10.7 100 +9 +9 1024.1 997.7

 

Местоположение метеостанции Мунглинап Запад (Западная Австралия, Австралия): широта -33.55 долгота 120.70 высота над уровнем моря 220 м.

В архиве по умолчанию представлена погода в Мунглинап Запад за последнюю неделю. Архивные данные за месяц целиком и за предыдущие месяцы, начиная с января 2011 года, Вы можете получить, выбрав интересующий диапазон дат из раскрывающегося списка и нажав кнопку "Ввод!".


*Определитесь, кто Вы:
робот инопланетянин человек

Внимание! Время в таблицах - всемирное. Для получения местного времени необходимо прибавить поправку, которая равна 8 ч.

Смотрите также архив погоды в соседних городах и на ближайших метеорологических станциях:

Погода в Хоптауне (Западная Австралия, Австралия) (68 км)
Погода в Эсперансе (Западная Австралия, Австралия) (106 км)
Погода в Салмон Гамс (Западная Австралия, Австралия) (106 км)
Погода в Эсперансе (Западная Австралия, Австралия) (114 км)
Погода в Джакапе (Западная Австралия, Австралия) (153 км)
Погода в Норсмане (Западная Австралия, Австралия) (177 км)
Погода в Ньюдегейте (Западная Австралия, Австралия) (180 км)
Погода на Озере Грейс (Западная Австралия, Австралия) (214 км)
Погода в Катаннинге (Западная Австралия, Австралия) (287 км)
Погода в Саутерн Кросс (Западная Австралия, Австралия) (288 км)

Пояснения к столбцам:

Ветер - указаны скорость ветра в м/с - средняя за 10 мин, порывы в срок и между сроками (в фигурных скобках) и направление, откуда дует ветер: С - северный, СВ - северо-восточный, В - восточный, ЮВ - юго-восточный, Ю - южный, ЮЗ - юго-западный, З - западный, СЗ - северо-западный.
Видимость - горизонтальная дальность видимости в метрах или километрах. При видимости от 1 до 10 км при отсутствии осадков обычно наблюдается дымка, при ухудшении видимости до 1 км и менее - туман. В сухую погоду видимость может ухудшаться дымом, пылью или мглою.
Явления - указаны атмосферные явления, наблюдавшиеся в срок или в последний час перед сроком; фигурными скобками обозначены явления, наблюдавшиеся между сроками (за 1-3 часа до срока); квадратными скобками обозначены град или гололедные отложения с указанием их диаметра в мм.
Облачность - указаны через наклонную черту общая и нижняя облачность в баллах и высота нижней границы облаков в метрах; квадратными скобками обозначены формы облаков: Ci - перистые, Cs - перисто-слоистые, Cc - перисто-кучевые, Ac - высококучевые, As - высокослоистые, Sc - слоисто-кучевые, Ns - слоисто-дождевые, Cu - кучевые, Cb - кучево-дождевые. Подробнее классификацию облаков см. в Атласе облаков (PDF).
T - Температура воздуха - температура, измеренная на высоте 2 м над землей.
Td - Температура точки росы - температура, при понижении до которой содержащийся в воздухе водяной пар достигнет насыщения.
f - Относительная влажность воздуха - влажноcть воздуха, измеренная на высоте 2 м над землей.
Te - Эффективная температура - температура, которую ощущает одетый по сезону человек в тени. Характеристика душности погоды. При расчете учитывается влияние влажности воздуха и скорости ветра на теплоощущения человека.
Tes - Эффективная температура на солнце - температура, которую ощущает человек, с поправкой на солнечный нагрев. Характеристика знойности погоды. Зависит от высоты солнца над горизонтом, облачности и скорости ветра. Ночью, в пасмурную погоду, а также при ветре 12 м/с и более поправка равна нулю.
P - Атмосферное давление - приведенное к уровню моря атмосферное давление.
Po - Атмосферное давление - измеренное на уровне метеостанции атмосферное давление.
Tmin - Минимальная температура - минимум температуры воздуха на высоте 2 м над землей.
Tmax - Максимальная температура - максимум температуры воздуха на высоте 2 м над землей.
R - Количество осадков - Количество выпавших осадков за период времени, мм. При наведении курсора мыши на число - период времени, за который выпало указанное количество осадков.
R24 - Количество осадков - Количество выпавших осадков за 24 часа, мм.
S - Снежный покров - Высота снежного покрова, см. При наведении курсора мыши на число - состояние снежного покрова и степень покрытия местности в баллах.